Wind_Speed
24 23 23 23 23 23 24 24 26 27 29 30 32 33 34 36 37 38 38 39 39 39 39 40 41 41 41 41 42 42 42 42 43 44 45 44 42 41
25 24 24 24 25 25 25 25 26 27 29 31 32 33 34 36 38 40 41 42 42 43 42 42 42 42 43 43 43 44 43 42 43 45 46 46 45 44
26 27 27 27 27 26 26 27 27 27 28 30 32 33 33 35 37 39 41 43 45 46 46 46 45 45 45 45 45 45 45 44 44 45 46 47 47 47
28 28 28 29 29 28 29 29 29 29 29 30 32 33 34 34 36 37 40 42 45 47 48 48 48 48 47 47 47 47 47 46 45 45 46 47 47 48
30 30 30 30 31 31 31 31 31 31 30 30 31 33 34 35 36 37 38 40 43 45 47 49 50 50 50 50 49 48 48 48 48 47 47 47 48 47
32 32 32 32 32 33 33 33 33 32 32 31 32 33 34 35 36 36 37 38 40 42 45 47 49 50 51 51 51 51 50 50 49 49 49 49 49 49
34 34 34 34 34 34 34 34 34 34 33 33 33 33 34 35 36 36 36 37 38 40 42 45 47 49 50 52 52 53 52 52 51 51 51 50 50 50
36 36 35 35 35 35 35 35 35 35 35 34 34 34 35 35 36 35 35 36 37 39 40 41 44 47 49 50 52 53 53 53 53 53 53 52 51 51
37 37 37 37 36 36 35 36 36 36 36 35 34 34 35 36 36 36 35 35 36 38 39 40 42 44 47 49 50 52 53 54 54 54 54 54 53 52
39 38 39 39 38 37 36 36 37 37 37 35 34 34 35 36 36 36 35 35 35 37 38 39 41 43 44 46 48 50 52 53 54 55 55 55 55 53
41 41 40 40 40 39 37 37 37 38 37 35 35 35 35 36 36 36 35 35 35 36 38 38 39 42 43 44 46 48 50 52 53 55 55 56 55 55
43 43 42 41 41 40 39 39 38 38 37 36 36 35 35 36 36 36 35 35 35 35 37 38 38 40 41 43 45 47 49 51 52 54 55 55 56 56
45 44 44 44 43 42 41 40 39 38 37 37 36 36 36 36 36 35 35 35 35 35 37 39 39 39 40 41 43 46 47 49 51 52 54 55 56 57
46 46 46 46 45 43 42 41 40 39 38 37 36 37 37 37 36 35 35 35 35 35 37 38 38 39 40 41 42 44 46 48 50 51 53 54 56 56
49 48 47 47 47 45 43 42 41 40 39 38 37 37 37 36 36 36 36 35 35 35 36 37 38 39 40 40 41 43 45 46 48 50 52 53 55 56
53 51 50 49 48 46 45 44 43 42 40 38 37 37 36 36 36 36 36 35 35 35 36 37 38 39 39 40 42 43 44 45 47 48 50 52 53 54
56 55 53 51 49 47 46 45 44 43 41 39 38 37 36 36 36 36 35 35 34 34 35 37 38 38 39 39 41 42 44 45 46 47 49 50 52 53
58 56 54 53 51 49 47 46 44 43 42 40 39 37 36 36 36 35 34 34 33 33 34 36 37 38 38 38 39 41 43 45 46 47 48 50 51 53
60 57 54 53 51 49 47 45 44 43 42 40 39 37 36 35 35 35 34 34 33 33 34 35 36 36 36 37 38 41 42 44 45 46 47 48 50 52
60 57 55 53 51 49 47 45 43 42 41 39 38 37 36 35 34 34 34 34 34 33 33 34 34 35 35 35 36 38 40 41 43 44 45 47 48 50
59 57 54 52 49 48 46 44 42 41 40 39 37 36 35 34 33 33 33 33 33 32 32 32 33 34 34 33 33 35 38 40 41 43 44 45 46 48
56 54 51 48 46 44 43 41 40 40 38 36 35 34 33 33 33 33 33 32 32 32 31 31 32 32 31 31 32 34 36 38 39 41 42 44 44 44
49 47 45 43 41 40 39 38 37 37 35 34 33 32 33 33 32 32 31 31 31 30 30 30 30 29 28 29 30 32 34 36 38 39 40 42 43 43
Wind_Direction
322 319 316 314 310 307 303 299 295 291 286 281 275 270 265 262 260 257 255 253 252 251 249 248 246 245 243 242 241 241 240 239 237 235 235 234 234 234
319 318 316 314 312 309 306 302 299 295 290 286 281 276 270 264 261 258 256 254 252 251 249 248 246 245 244 243 241 240 240 240 238 236 235 235 234 234
317 316 315 314 312 311 309 306 303 299 293 288 285 282 277 271 265 261 258 255 253 251 250 249 248 246 245 244 243 242 241 240 238 237 236 235 235 235
316 315 314 313 312 311 309 308 306 302 296 290 287 284 281 276 271 266 261 258 255 253 251 249 248 247 245 244 243 243 241 241 239 237 236 236 236 235
314 313 312 312 311 311 309 309 307 304 298 293 289 286 283 279 275 270 265 261 257 255 253 251 249 247 246 244 243 242 242 241 239 238 236 235 235 235
312 311 310 310 310 309 308 308 307 304 300 295 291 288 284 281 277 273 268 264 260 257 254 252 250 248 246 244 243 242 241 240 239 238 237 236 235 235
310 309 308 308 308 308 308 307 306 304 301 297 293 289 285 282 279 275 271 267 264 260 257 254 251 249 247 245 243 242 241 240 239 238 237 236 235 235
308 308 307 307 307 307 307 306 305 304 302 298 294 289 285 283 280 277 272 268 265 262 259 256 253 249 247 245 244 242 241 240 239 238 237 236 236 235
306 306 306 306 305 305 305 305 304 303 301 299 295 290 286 283 280 278 274 269 266 263 260 257 255 251 248 246 244 243 241 240 239 238 238 237 237 236
303 303 303 304 304 304 303 303 303 303 301 299 295 290 286 282 280 278 275 271 267 264 260 257 255 253 250 248 245 243 241 240 239 238 237 237 237 237
302 302 302 302 303 303 302 302 302 301 300 298 295 291 287 283 280 277 274 271 268 266 263 259 255 254 251 249 246 244 242 240 239 239 237 237 237 236
301 300 300 301 301 301 301 301 300 300 298 297 295 291 288 284 281 277 274 272 269 266 264 262 258 254 251 250 248 246 243 241 240 239 238 237 236 236
299 298 298 298 299 299 299 299 299 299 297 295 294 291 288 285 282 279 276 273 270 267 263 262 259 256 251 249 249 247 244 242 240 240 239 237 236 235
297 296 296 296 297 297 298 297 297 297 296 294 292 289 287 285 282 279 277 274 271 267 264 261 259 257 254 250 248 248 246 243 241 240 239 237 236 235
294 294 294 294 295 295 295 296 295 295 295 292 290 288 286 284 282 279 277 275 272 268 265 262 260 257 256 252 248 246 246 244 242 240 238 237 235 234
292 292 292 292 292 292 292 293 292 292 292 291 288 287 285 283 282 279 277 276 273 269 266 264 261 258 256 254 249 246 246 245 243 241 238 236 235 233
289 290 290 289 289 289 289 290 289 289 289 289 287 285 283 282 281 280 278 276 273 270 267 265 262 260 258 255 251 248 246 244 243 241 238 235 234 232
286 286 286 285 284 285 286 286 286 285 286 286 285 283 281 281 280 279 278 276 273 270 268 267 264 261 258 256 252 247 245 243 242 241 238 235 233 231
283 282 282 281 281 281 282 282 282 283 283 283 283 282 281 280 279 278 277 276 274 271 268 267 265 263 259 255 251 248 244 241 241 240 238 234 231 230
281 280 279 278 278 278 278 278 279 279 279 279 280 280 280 280 279 278 277 276 275 273 270 268 266 263 260 256 251 248 244 242 240 238 236 233 230 228
280 278 278 276 275 274 274 274 274 275 276 277 277 277 278 278 279 278 277 276 275 273 271 268 266 265 262 258 251 247 244 240 239 237 234 231 229 227
279 277 276 274 272 271 271 271 272 271 271 273 274 276 278 279 278 278 277 276 275 273 270 268 266 266 262 257 250 245 243 240 238 235 232 229 227 226
278 275 272 269 267 267 267 269 268 267 268 271 273 276 278 279 279 279 278 276 275 273 269 267 265 264 260 256 250 245 241 239 236 233 230 228 226 224
Height
5826 5823 5820 5818 5816 5814 5811 5809 5808 5805 5804 5802 5802 5802 5802 5803 5804 5805 5806 5808 5810 5812 5814 5817 5820 5823 5826 5830 5833 5837 5841 5844 5849 5853 5858 5862 5867 5871
5820 5817 5815 5812 5809 5807 5805 5803 5800 5798 5795 5793 5792 5792 5792 5792 5793 5794 5795 5797 5799 5801 5803 5806 5809 5812 5816 5819 5823 5827 5831 5834 5838 5843 5848 5852 5857 5862
5815 5812 5809 5806 5803 5800 5798 5795 5793 5791 5788 5785 5783 5782 5781 5781 5782 5783 5784 5785 5787 5789 5791 5794 5798 5801 5805 5808 5812 5816 5820 5824 5828 5833 5837 5842 5847 5852
5808 5805 5802 5799 5796 5793 5790 5787 5784 5782 5780 5777 5774 5772 5771 5770 5770 5771 5772 5773 5774 5776 5779 5782 5785 5789 5793 5797 5801 5805 5809 5813 5817 5822 5827 5832 5837 5841
5802 5798 5795 5792 5788 5785 5782 5778 5775 5773 5770 5768 5765 5762 5761 5759 5759 5759 5760 5761 5762 5763 5765 5768 5771 5775 5780 5784 5788 5793 5797 5802 5807 5811 5815 5820 5825 5830
5794 5791 5787 5784 5780 5777 5773 5770 5766 5763 5761 5758 5756 5753 5751 5749 5748 5748 5748 5749 5750 5751 5753 5755 5758 5761 5766 5771 5775 5780 5784 5789 5794 5799 5804 5809 5814 5819
5786 5783 5779 5776 5772 5768 5765 5761 5757 5754 5751 5748 5746 5743 5740 5738 5737 5737 5737 5737 5738 5739 5740 5742 5745 5749 5751 5756 5761 5766 5771 5776 5781 5787 5792 5797 5803 5808
5778 5774 5771 5767 5763 5759 5756 5752 5748 5744 5741 5738 5735 5733 5730 5728 5727 5726 5726 5726 5727 5727 5728 5730 5732 5735 5738 5742 5747 5752 5757 5763 5768 5774 5779 5785 5790 5796
5769 5765 5762 5758 5754 5750 5746 5742 5738 5734 5731 5728 5725 5722 5719 5717 5716 5715 5715 5715 5716 5715 5716 5718 5719 5722 5724 5728 5733 5738 5743 5749 5754 5760 5766 5772 5778 5784
5760 5756 5752 5748 5744 5740 5737 5732 5728 5724 5721 5718 5715 5712 5709 5707 5705 5705 5704 5704 5704 5704 5704 5706 5707 5709 5712 5715 5719 5724 5729 5735 5740 5746 5752 5759 5765 5770
5749 5745 5742 5738 5734 5730 5726 5722 5718 5713 5710 5707 5704 5701 5698 5696 5694 5693 5693 5692 5693 5692 5692 5694 5696 5696 5700 5703 5706 5710 5715 5721 5726 5732 5738 5745 5751 5757
5738 5734 5730 5727 5723 5719 5715 5711 5707 5703 5699 5696 5693 5690 5688 5685 5683 5682 5681 5681 5681 5682 5680 5681 5683 5685 5688 5691 5693 5697 5701 5706 5712 5718 5724 5730 5736 5743
5726 5722 5718 5714 5711 5707 5703 5700 5696 5692 5689 5685 5682 5679 5676 5674 5672 5671 5670 5669 5669 5670 5669 5669 5671 5673 5675 5679 5681 5684 5688 5692 5698 5703 5709 5715 5722 5729
5714 5710 5705 5701 5698 5695 5691 5688 5684 5681 5678 5675 5671 5668 5665 5663 5661 5660 5659 5658 5658 5658 5657 5657 5659 5660 5663 5666 5669 5671 5674 5678 5684 5689 5695 5701 5708 5714
5699 5696 5692 5688 5685 5682 5678 5675 5672 5669 5666 5663 5660 5657 5654 5652 5650 5648 5647 5646 5646 5646 5645 5645 5646 5648 5650 5653 5656 5658 5661 5665 5670 5675 5681 5687 5694 5701
5684 5681 5678 5674 5671 5668 5665 5662 5659 5656 5654 5651 5649 5646 5643 5641 5639 5637 5636 5635 5634 5634 5633 5633 5634 5635 5637 5640 5643 5646 5649 5652 5656 5661 5667 5673 5680 5687
5667 5665 5662 5659 5656 5654 5651 5648 5645 5643 5641 5639 5637 5634 5632 5630 5628 5626 5625 5623 5623 5622 5621 5621 5621 5623 5625 5627 5630 5633 5635 5639 5643 5647 5653 5660 5667 5674
5650 5648 5646 5643 5641 5638 5636 5634 5632 5630 5628 5626 5624 5622 5620 5618 5616 5615 5613 5612 5611 5611 5610 5609 5609 5610 5612 5615 5617 5619 5622 5625 5629 5634 5639 5647 5654 5661
5631 5630 5628 5626 5624 5622 5621 5620 5618 5616 5615 5613 5612 5610 5608 5607 5605 5603 5602 5601 5600 5599 5599 5598 5597 5598 5600 5602 5603 5605 5609 5612 5617 5622 5628 5634 5641 5648
5612 5610 5609 5608 5607 5606 5605 5604 5604 5603 5601 5600 5599 5598 5596 5595 5593 5592 5591 5590 5589 5588 5587 5586 5586 5586 5587 5589 5591 5594 5596 5600 5605 5610 5615 5622 5628 5635
5591 5590 5590 5590 5589 5590 5590 5589 5589 5589 5588 5587 5586 5585 5584 5583 5582 5581 5580 5578 5577 5576 5576 5575 5574 5574 5575 5577 5580 5582 5584 5588 5593 5598 5604 5610 5617 5624
5571 5570 5571 5571 5572 5573 5574 5574 5575 5575 5575 5575 5574 5574 5573 5572 5571 5570 5568 5567 5566 5565 5565 5564 5563 5564 5565 5566 5568 5571 5573 5577 5582 5586 5592 5599 5605 5613
5552 5552 5553 5555 5557 5558 5559 5560 5561 5562 5562 5563 5563 5562 5562 5561 5560 5558 5557 5556 5555 5554 5554 5553 5553 5554 5555 5556 5558 5560 5563 5567 5571 5576 5582 5588 5595 5602